HKS628 ENBN-ENBN

Flight info

Callsign HKS628
Flight time N/A
Altitude 2000
Route VEGAS2B DCT OL619 DCT ARNOR RNP085
Aircraft S76/M-V/N

Departure

Time 2026-05-04 10:19
Airport Brønnøysund Airport, Brønnøy (ENBN)

Arrival

Time N/A
Airport Brønnøysund Airport, Brønnøy (ENBN)
Time Latitude Longitude Altitude Speed Heading
2026-05-04 09:51 65.46064 12.21192 21 ft 0 kts 307°
2026-05-04 10:16 65.46065 12.21192 21 ft 0 kts 336°
2026-05-04 10:16 65.46061 12.21187 21 ft 0 kts 218°
2026-05-04 10:16 65.46060 12.21190 21 ft 1 kts 160°
2026-05-04 10:17 65.46051 12.21242 23 ft 7 kts 110°
2026-05-04 10:17 65.46027 12.21353 24 ft 7 kts 124°
2026-05-04 10:19 65.44944 12.19265 355 ft 91 kts 226°
2026-05-04 10:19 65.44554 12.18102 646 ft 90 kts 230°
2026-05-04 10:19 65.44143 12.16946 913 ft 93 kts 227°
2026-05-04 10:19 65.43654 12.15855 1135 ft 98 kts 220°
2026-05-04 10:20 65.43124 12.14780 1399 ft 101 kts 219°
2026-05-04 10:20 65.42571 12.13711 1658 ft 103 kts 218°
2026-05-04 10:20 65.41998 12.12563 1827 ft 113 kts 219°
2026-05-04 10:20 65.41366 12.11292 1897 ft 123 kts 219°
2026-05-04 10:21 65.40689 12.09964 1934 ft 127 kts 219°
2026-05-04 10:21 65.39992 12.08635 1913 ft 128 kts 218°
2026-05-04 10:21 65.39304 12.07303 1921 ft 125 kts 218°
2026-05-04 10:21 65.38644 12.06014 1912 ft 119 kts 219°
2026-05-04 10:22 65.37414 12.03623 1890 ft 111 kts 219°
2026-05-04 10:22 65.36832 12.02451 1849 ft 107 kts 231°
2026-05-04 10:22 65.36566 12.00826 1825 ft 104 kts 251°
2026-05-04 10:23 65.36649 11.99106 1807 ft 107 kts 279°
2026-05-04 10:23 65.36915 11.97464 1807 ft 105 kts 281°
2026-05-04 10:25 65.38940 11.85299 1874 ft 127 kts 282°
2026-05-04 10:25 65.39252 11.83306 1865 ft 128 kts 282°
2026-05-04 10:25 65.39572 11.81306 1859 ft 129 kts 282°
2026-05-04 10:25 65.39888 11.79288 1860 ft 130 kts 282°
2026-05-04 10:26 65.40202 11.77235 1861 ft 132 kts 282°
2026-05-04 10:26 65.40509 11.75154 1882 ft 133 kts 282°
2026-05-04 10:26 65.40799 11.73041 1873 ft 134 kts 282°
2026-05-04 10:26 65.41088 11.70914 1870 ft 134 kts 281°
2026-05-04 10:27 65.41380 11.68797 1867 ft 133 kts 282°
2026-05-04 10:27 65.41667 11.66697 1861 ft 132 kts 281°
2026-05-04 10:27 65.41950 11.64626 1862 ft 130 kts 282°
2026-05-04 10:27 65.42234 11.62584 1851 ft 129 kts 282°
2026-05-04 10:28 65.42511 11.60576 1857 ft 128 kts 281°
2026-05-04 10:28 65.42791 11.58544 1856 ft 128 kts 282°
2026-05-04 10:28 65.43072 11.56525 1858 ft 127 kts 282°
2026-05-04 10:28 65.43348 11.54509 1856 ft 127 kts 282°
2026-05-04 10:29 65.43623 11.52497 1853 ft 127 kts 282°
2026-05-04 10:29 65.43897 11.50479 1854 ft 127 kts 282°
2026-05-04 10:29 65.44171 11.48464 1847 ft 127 kts 282°
2026-05-04 10:29 65.44438 11.46449 1851 ft 127 kts 282°
2026-05-04 10:30 65.44703 11.44427 1872 ft 128 kts 281°
2026-05-04 10:30 65.44876 11.42360 1878 ft 126 kts 264°
2026-05-04 10:30 65.44823 11.40254 1877 ft 126 kts 262°
2026-05-04 10:30 65.44763 11.38153 1871 ft 126 kts 262°
2026-05-04 10:31 65.44704 11.36052 1869 ft 126 kts 262°
2026-05-04 10:31 65.44648 11.33944 1870 ft 126 kts 262°
2026-05-04 10:32 65.44886 11.21397 1871 ft 128 kts 279°
2026-05-04 10:33 65.45115 11.19320 1875 ft 130 kts 278°
2026-05-04 10:33 65.45340 11.17215 1876 ft 130 kts 278°
2026-05-04 10:33 65.45565 11.15118 1874 ft 130 kts 278°
2026-05-04 10:33 65.45794 11.13021 1874 ft 130 kts 278°
2026-05-04 10:34 65.46020 11.10921 1870 ft 130 kts 278°
2026-05-04 10:34 65.46245 11.08819 1869 ft 129 kts 278°
2026-05-04 10:34 65.46468 11.06740 1864 ft 128 kts 278°
2026-05-04 10:34 65.46696 11.04668 1862 ft 128 kts 278°
2026-05-04 10:35 65.46925 11.02607 1862 ft 127 kts 278°
2026-05-04 10:35 65.47158 11.00555 1866 ft 127 kts 278°
2026-05-04 10:35 65.47386 10.98498 1867 ft 127 kts 278°
2026-05-04 10:35 65.47606 10.96427 1869 ft 128 kts 278°
2026-05-04 10:36 65.47820 10.94342 1868 ft 129 kts 280°
2026-05-04 10:36 65.47984 10.92186 1874 ft 133 kts 280°
2026-05-04 10:36 65.48143 10.89964 1882 ft 135 kts 278°
2026-05-04 10:36 65.48276 10.87719 1878 ft 136 kts 278°
2026-05-04 10:37 65.48412 10.85467 1878 ft 136 kts 278°
2026-05-04 10:37 65.48547 10.83214 1873 ft 136 kts 278°
2026-05-04 10:37 65.48683 10.80967 1869 ft 135 kts 278°
2026-05-04 10:37 65.48817 10.78732 1870 ft 135 kts 278°
2026-05-04 10:39 65.49622 10.65339 1868 ft 135 kts 278°
2026-05-04 10:39 65.49752 10.63098 1869 ft 135 kts 278°
2026-05-04 10:39 65.49884 10.60849 1873 ft 136 kts 278°
2026-05-04 10:40 65.50013 10.58596 1872 ft 135 kts 278°
2026-05-04 10:40 65.50144 10.56360 1870 ft 135 kts 278°
2026-05-04 10:40 65.50273 10.54117 1871 ft 135 kts 278°
2026-05-04 10:40 65.50431 10.51881 1875 ft 135 kts 284°
2026-05-04 10:41 65.50670 10.49696 1869 ft 135 kts 285°
2026-05-04 10:41 65.50916 10.47515 1874 ft 136 kts 285°
2026-05-04 10:41 65.51161 10.45299 1887 ft 137 kts 285°
2026-05-04 10:41 65.51405 10.43089 1881 ft 137 kts 286°
2026-05-04 10:42 65.51663 10.40886 1878 ft 136 kts 285°
2026-05-04 10:42 65.51908 10.38686 1877 ft 136 kts 285°
2026-05-04 10:42 65.52156 10.36487 1880 ft 136 kts 285°
2026-05-04 10:42 65.52398 10.34285 1876 ft 136 kts 285°
2026-05-04 10:43 65.52662 10.32097 1879 ft 136 kts 285°
2026-05-04 10:44 65.54497 10.16763 1878 ft 135 kts 285°
2026-05-04 10:45 65.54745 10.14579 1876 ft 135 kts 285°
2026-05-04 10:45 65.54981 10.12379 1876 ft 137 kts 287°
2026-05-04 10:45 65.55168 10.10090 1897 ft 142 kts 285°
2026-05-04 10:45 65.55362 10.07671 1940 ft 152 kts 285°
2026-05-04 10:46 65.55553 10.05120 1940 ft 156 kts 285°
2026-05-04 10:46 65.55741 10.02561 1913 ft 154 kts 285°
2026-05-04 10:46 65.55924 10.00048 1894 ft 151 kts 285°
2026-05-04 10:46 65.56095 9.97578 1882 ft 147 kts 285°
2026-05-04 10:47 65.56260 9.95178 1876 ft 143 kts 285°
2026-05-04 10:47 65.56418 9.92837 1870 ft 139 kts 285°
2026-05-04 10:47 65.56573 9.90578 1868 ft 137 kts 285°
2026-05-04 10:47 65.56732 9.88316 1872 ft 136 kts 285°
2026-05-04 10:49 65.57844 9.72205 1906 ft 143 kts 284°
2026-05-04 10:49 65.58013 9.69837 1901 ft 142 kts 285°
2026-05-04 10:50 65.58181 9.67493 1893 ft 141 kts 285°
2026-05-04 10:51 65.59282 9.51148 1898 ft 142 kts 284°
2026-05-04 10:52 65.59442 9.48789 1900 ft 142 kts 285°
2026-05-04 10:52 65.59603 9.46430 1909 ft 142 kts 284°
2026-05-04 10:52 65.59767 9.44079 1907 ft 141 kts 285°
2026-05-04 10:54 65.60795 9.28377 1848 ft 141 kts 284°
2026-05-04 10:54 65.60958 9.26049 1849 ft 140 kts 285°
2026-05-04 10:56 65.62683 9.10516 1848 ft 134 kts 294°
2026-05-04 10:56 65.62990 9.08378 1850 ft 135 kts 294°
2026-05-04 10:56 65.63306 9.06237 1856 ft 135 kts 294°
2026-05-04 10:57 65.63610 9.04071 1862 ft 137 kts 290°
2026-05-04 10:57 65.63892 9.01878 1850 ft 136 kts 294°
2026-05-04 10:57 65.64211 8.99732 1854 ft 135 kts 295°
2026-05-04 10:57 65.64524 8.97583 1853 ft 135 kts 294°
2026-05-04 10:58 65.64833 8.95433 1851 ft 135 kts 294°
2026-05-04 10:58 65.65143 8.93291 1853 ft 134 kts 294°
2026-05-04 10:58 65.65452 8.91153 1849 ft 134 kts 294°
2026-05-04 10:58 65.65758 8.89016 1853 ft 134 kts 294°
2026-05-04 10:59 65.66066 8.86879 1845 ft 134 kts 294°
2026-05-04 10:59 65.66387 8.84764 1847 ft 134 kts 295°
2026-05-04 10:59 65.66701 8.82643 1849 ft 134 kts 294°
2026-05-04 10:59 65.67012 8.80507 1848 ft 134 kts 294°
2026-05-04 11:00 65.67329 8.78378 1849 ft 134 kts 294°
2026-05-04 11:01 65.69502 8.63492 1856 ft 134 kts 294°
2026-05-04 11:02 65.69815 8.61358 1851 ft 134 kts 294°
2026-05-04 11:02 65.70139 8.59240 1852 ft 134 kts 294°
2026-05-04 11:05 65.73847 8.29214 1207 ft 132 kts 290°
2026-05-04 11:06 65.74059 8.27050 1137 ft 131 kts 288°
2026-05-04 11:06 65.74204 8.24848 1076 ft 133 kts 283°
2026-05-04 11:06 65.74321 8.22631 1008 ft 132 kts 283°
2026-05-04 11:06 65.74430 8.20440 965 ft 130 kts 283°
2026-05-04 11:08 65.75035 8.05724 932 ft 124 kts 280°
2026-05-04 11:10 65.75272 7.91176 691 ft 122 kts 283°
2026-05-04 11:12 65.75645 7.77084 430 ft 105 kts 290°
2026-05-04 11:12 65.75758 7.75379 418 ft 100 kts 288°
2026-05-04 11:12 65.75876 7.73754 420 ft 96 kts 289°
2026-05-04 11:12 65.75986 7.72179 417 ft 94 kts 289°
2026-05-04 11:13 65.76077 7.70625 423 ft 92 kts 288°
2026-05-04 11:13 65.76176 7.69070 436 ft 94 kts 289°
2026-05-04 11:13 65.76278 7.67483 453 ft 96 kts 288°
2026-05-04 11:13 65.76384 7.65862 452 ft 97 kts 288°
2026-05-04 11:14 65.76486 7.64234 448 ft 97 kts 287°